Regional Weather Roundup
Issued by NWS

Home | Current Version | Previous Version | Graphics & Text | Print | Product List | Glossary On
Versions: 1 2 3 4 5 6 7 8 9 10 11 12 13 14 15 16 17 18 19 20 21 22 23 24 25 26 27 28 29 30 31 32 33 34 35 36 37 38 39 40 41 42 43 44 45 46 47 48 49 50
000
ASUS43 KDTX 052301
RWRMI
MICHIGAN HOURLY REGIONAL WEATHER ROUNDUP
NATIONAL WEATHER SERVICE DETROIT/PONTIAC MI
600 PM EST FRI FEB 05 2016

NOTE: "FAIR" INDICATES FEW OR NO CLOUDS BELOW 12,000 FEET WITH NO
SIGNIFICANT WEATHER AND/OR OBSTRUCTION TO VISIBILITY.

MIZ047>049-052>055-059>063-066>070-074>076-081>083-060000-
SOUTHEAST LOWER MICHIGAN

CITY           SKY/WX    TMP DP  RH WIND       PRES   REMARKS
ADRIAN         CLOUDY    39  24  55 W15       30.31R WCI  31
ALMA           LGT SNOW  31  29  92 SW3       30.29S
ANN ARBOR      CLOUDY    36  22  56 SW7       30.29R WCI  30
BAD AXE        LGT SNOW  31  29  91 W3        30.29R
CARO           LGT SNOW  32  30  92 CALM      30.28R
DETROIT CITY   CLOUDY    35  21  56 S9        30.30R WCI  28
DETROIT        CLOUDY    37  22  54 S9        30.31R WCI  30
FLINT          FLURRIES  35  26  69 NW8       30.29R WCI  29
GROSSE ILE     CLOUDY    36  30  80 S5        30.30R WCI  32
HILLSDALE      CLOUDY    31  24  76 SW7       30.28S WCI  24
HOWELL         FLURRIES  34  25  70 W8        30.28R WCI  27

CITY           SKY/WX    TMP DP  RH WIND       PRES   REMARKS
JACKSON        LGT SNOW  32  25  75 SW12      30.29R WCI  23
LAMBERTVILLE   CLOUDY    37  22  55 S5        30.31R WCI  33
LANSING        LGT SNOW  31  28  89 W7        30.30R FOG     WCI  24
LAPEER         CLOUDY    35  23  62 W6        30.28R WCI  30
MASON          LGT SNOW  32  28  84 W6        30.29R WCI  26
MONROE         CLOUDY    37  22  56 S7        30.30R WCI  31
MT. CLEMENS    CLOUDY    34  26  72 S13       30.28R WCI  25
PONTIAC        CLOUDY    36  21  54 SW7       30.27R WCI  30
PORT HOPE        N/A     31  26  82 VRB3      30.27S
PORT HURON     CLOUDY    32  25  74 S5        30.30S WCI  27
TRI CITIES     LGT SNOW  32  28  85 SW6       30.29S FOG     WCI  26
MIDLAND        CLOUDY    31  26  83 CALM      30.28R
TROY           CLOUDY    38  20  49 SW10      30.30S WCI  31
SAGINAW HB     LGT SNOW  32  32 100 W3        30.29S
$$
MIZ043>046-050>051-056>058-064>065-071>073-077>080-060000-
SOUTHWEST LOWER MICHIGAN

CITY           SKY/WX    TMP DP  RH WIND       PRES   REMARKS
BATTLE CREEK   LGT SNOW  30  27  88 W10       30.30S FOG     WCI  21
BENTON HARBOR  CLOUDY    30  21  69 NW5       30.35R WCI  25
BIG RAPIDS     MOCLDY    28  18  65 W5        30.26S WCI  23
COLDWATER      FLURRIES  32  26  79 SW5       30.30R WCI  27
FREMONT        FAIR      25  16  67 W6        30.30R WCI  18
HOLLAND        CLOUDY    29  19  66 NW6       30.33R WCI  23
GRAND RAPIDS   CLOUDY    29  22  75 W8        30.30R WCI  21
IONIA          LGT SNOW  30  28  92 W5        30.29S WCI  25
KALAMAZOO      CLOUDY    30  24  78 NW9       30.31R WCI  22
LUDINGTON      CLOUDY    27  17  66 W5        30.31S WCI  22
MARSHALL       LGT SNOW  32  25  76 W7        30.29S WCI  26
MOUNT PLEASANT CLOUDY    32  23  70 W3        30.27S
MUSKEGON       CLOUDY    28  17  63 NW7       30.33R WCI  21
SOUTH HAVEN    MOCLDY    30  22  73 N3        30.34R
$$
MIZ016>042-060000-
NORTHERN LOWER MICHIGAN

CITY           SKY/WX    TMP DP  RH WIND       PRES   REMARKS
ALPENA         PTCLDY    27  20  75 SW3       30.27R
BEAVER ISLAND  PTCLDY    26  15  64 SW9       30.27R WCI  16
BELLAIRE       MOCLDY    28  18  65 W3        30.28S
CADILLAC       CLOUDY    24  17  73 W6        30.23S WCI  17
CHARLEVOIX     CLOUDY    28  17  64 W7        30.30S WCI  20
FRANKFORT      CLOUDY    28  17  65 W6        30.29S WCI  21
GAYLORD        PTCLDY    25  14  63 NW5       30.23R WCI  19
GRAYLING       CLOUDY    25  18  76 CALM      30.25S
HARBOR SPRINGS CLOUDY    27  16  63 W3        30.26S
HOUGHTON LAKE  CLOUDY    26  22  84 W3        30.25R
MANISTEE       CLOUDY    27  16  63 W5        30.30S WCI  21
OSCODA         CLOUDY    30  24  80 SW5       30.27R WCI  25
PELLSTON       CLOUDY    25  14  63 W3        30.27R
ROGERS CITY    CLEAR     26  14  61 W5        30.27R WCI  20
TRAVERSE CITY  MOCLDY    26  16  65 W8        30.27S WCI  18
$$
MIZ007>008-015-060000-
EASTERN UPPER MICHIGAN

CITY           SKY/WX    TMP DP  RH WIND       PRES   REMARKS
KINROSS        CLOUDY    25  19  80 W3        30.24R
MACKINAC ISLAN CLOUDY    25  19  76 W12       30.25S WCI  14
NEWBERRY       MOCLDY    18  11  71 W5        30.23S WCI  11
S. S. MARIE    MOCLDY    23  15  71 NW3       30.23S
$$
MIZ004>006-011>014-085-060000-
CENTRAL UPPER MICHIGAN

CITY           SKY/WX    TMP DP  RH WIND       PRES   REMARKS
MANISTIQUE     CLOUDY    26  14  60 CALM      30.26R
ESCANABA       PTCLDY    27  14  59 S9        30.26S WCI  17
MENOMINEE      CLEAR     23  12  63 S5        30.27F WCI  17
SAWYER-GWINN   CLOUDY    23  12  63 CALM      30.19F
$$
MIZ001>003-009>011-084-060000-
WESTERN UPPER MICHIGAN

CITY           SKY/WX    TMP DP  RH WIND       PRES   REMARKS
IRON MOUNTAIN  CLOUDY    26   8  46 S5        30.20S WCI  20
HOUGHTON       CLOUDY    23  11  60 S8        30.16F WCI  14
COPPER HARBOR    N/A     24  10  55 SW5       30.19F WCI  18
IRONWOOD       CLOUDY    27  12  54 S6        30.12F WCI  20
$$

ABBREVIATIONS USED IN REMARKS
   TC - TEMPERATURE IN CELSIUS
  WCI - WIND CHILL INDEX
   HX - HEAT INDEX
  VSB - VISIBILITY




USA.gov is the U.S. government's official web portal to all federal, state and local government web resources and services.